This is the latest recevied weather packets stored in our database for station/object K8FJG-13. If no packets are shown the sender has not sent any weather packets the latest 10 day(s).
| Time | Temp. | Humidity | Pressure | Rain* | Wind** | Luminosity | Snow |
|---|---|---|---|---|---|---|---|
| 1777614909 | 3.89° C | 84% | 969 hPa | - | - | - | - |
| 1777614306 | 3.89° C | 82% | 969 hPa | - | - | - | - |
| 1777613703 | 3.33° C | 81% | 969.3 hPa | - | - | - | - |
| 1777613100 | 3.33° C | 83% | 969.5 hPa | - | - | - | - |
| 1777612497 | 2.78° C | 83% | 969.5 hPa | - | - | - | - |
| 1777611894 | 2.78° C | 84% | 969.5 hPa | - | - | - | - |
| 1777611291 | 2.78° C | 82% | 969.4 hPa | - | - | - | - |
| 1777610687 | 2.78° C | 84% | 969.5 hPa | - | - | - | - |
| 1777610084 | 3.33° C | 85% | 969.5 hPa | - | - | - | - |
| 1777609481 | 3.33° C | 84% | 969.6 hPa | - | - | - | - |
| 1777608878 | 3.33° C | 82% | 969.5 hPa | - | - | - | - |
| 1777608275 | 3.33° C | 80% | 969.6 hPa | - | - | - | - |
| 1777607672 | 3.33° C | 85% | 969.7 hPa | - | - | - | - |
| 1777607069 | 3.33° C | 85% | 969.8 hPa | - | - | - | - |
| 1777606466 | 3.33° C | 85% | 969.8 hPa | - | - | - | - |
| 1777605863 | 3.33° C | 86% | 969.9 hPa | - | - | - | - |
| 1777605259 | 3.33° C | 87% | 969.9 hPa | - | - | - | - |
| 1777604656 | 3.33° C | 86% | 969.9 hPa | - | - | - | - |
| 1777604053 | 3.33° C | 86% | 969.9 hPa | - | - | - | - |
| 1777603450 | 3.89° C | 84% | 970 hPa | - | - | - | - |
| 1777602847 | 3.89° C | 87% | 970 hPa | - | - | - | - |
| 1777602244 | 4.44° C | 86% | 969.9 hPa | - | - | - | - |
| 1777601641 | 4.44° C | 84% | 969.9 hPa | - | - | - | - |
| 1777601038 | 4.44° C | 79% | 969.8 hPa | - | - | - | - |
| 1777600435 | 5° C | 76% | 969.8 hPa | - | - | - | - |
* Rain since midnight (hover to see other rain measurements)
** Current wind speed in m/s (hover to see current wind gust speed)